Time,TemperatureF,DewpointF,PressureIn,WindDirection,WindDirectionDegrees,WindSpeedMPH,WindSpeedGustMPH,Humidity,HourlyPrecipIn,Conditions,Clouds,dailyrainin,SolarRadiationWatts/m^2,SoftwareType,DateUTC
2013-02-05 00:04:00,22.7,19.4,29.98,SE,126,0.0,0.0,87,0.00,OVC,,0.00,0.0,WeatherDisplay:10.37,2013-02-05 06:04:00,
2013-02-05 00:09:00,22.7,19.4,29.97,SE,127,2.7,4.0,87,0.00,OVC,,0.00,0.0,WeatherDisplay:10.37,2013-02-05 06:09:00,
2013-02-05 00:14:00,22.8,19.5,29.96,South,169,0.1,2.3,87,0.00,OVC,,0.00,0.0,WeatherDisplay:10.37,2013-02-05 06:14:00,
2013-02-05 00:16:00,23.5,20.2,29.96,SE,130,0.0,5.0,87,0.00,CLR,CLR,0.00,0.0,WeatherDisplay:10.37,2013-02-05 06:16:00,
2013-02-05 00:20:00,22.9,19.6,29.96,ESE,123,0.0,0.0,87,0.00,OVC,,0.00,0.0,WeatherDisplay:10.37,2013-02-05 06:20:00,
2013-02-05 00:25:00,22.9,19.6,29.96,SSE,160,0.9,3.5,87,0.00,OVC,,0.00,0.0,WeatherDisplay:10.37,2013-02-05 06:25:00,
2013-02-05 00:26:00,23.6,20.3,29.97,South,189,0.0,5.0,87,0.00,OVC,OVC,0.00,0.0,WeatherDisplay:10.37,2013-02-05 06:26:00,
2013-02-05 00:30:00,22.9,19.6,29.96,South,175,0.1,3.5,87,0.00,OVC,,0.00,0.0,WeatherDisplay:10.37,2013-02-05 06:30:00,
2013-02-05 00:35:00,22.9,19.6,29.96,South,190,1.2,3.0,87,0.00,OVC,,0.00,0.0,WeatherDisplay:10.37,2013-02-05 06:35:00,
2013-02-05 00:36:00,23.6,20.3,29.97,SSE,161,0.0,4.0,87,0.00,OVC,OVC,0.00,0.0,WeatherDisplay:10.37,2013-02-05 06:36:00,
2013-02-05 00:41:00,23.0,19.7,29.97,SSE,158,0.5,3.5,87,0.00,OVC,,0.00,0.0,WeatherDisplay:10.37,2013-02-05 06:41:00,
2013-02-05 00:46:00,23.1,19.8,29.96,SSE,147,0.4,2.0,87,0.00,OVC,,0.00,0.0,WeatherDisplay:10.37,2013-02-05 06:46:00,
2013-02-05 00:51:00,23.2,19.9,29.96,South,177,2.7,6.0,87,0.00,OVC,,0.00,0.0,WeatherDisplay:10.37,2013-02-05 06:51:00,
2013-02-05 00:56:00,23.2,19.9,29.96,SSE,165,0.5,1.1,87,0.00,OVC,,0.00,0.0,WeatherDisplay:10.37,2013-02-05 06:56:00,
2013-02-05 01:02:00,23.3,20.0,29.95,South,170,2.0,3.5,87,0.00,OVC,,0.00,0.0,WeatherDisplay:10.37,2013-02-05 07:02:00,
2013-02-05 01:06:00,23.8,20.5,29.96,SSE,160,1.0,4.0,87,0.00,OVC,OVC,0.00,0.0,WeatherDisplay:10.37,2013-02-05 07:06:00,
2013-02-05 01:07:00,23.4,20.1,29.95,SE,142,1.3,2.3,87,0.00,OVC,,0.00,0.0,WeatherDisplay:10.37,2013-02-05 07:07:00,
2013-02-05 01:11:00,23.4,20.1,29.96,ESE,113,0.4,3.5,87,0.00,OVC,,0.00,0.0,WeatherDisplay:10.37,2013-02-05 07:11:00,
2013-02-05 01:12:00,23.4,20.1,29.96,ESE,113,0.4,3.5,87,0.00,OVC,,0.00,0.0,WeatherDisplay:10.37,2013-02-05 07:12:00,
2013-02-05 01:16:00,23.9,20.6,29.95,SSE,168,0.0,4.0,87,0.00,OVC,OVC,0.00,0.0,WeatherDisplay:10.37,2013-02-05 07:16:00,
2013-02-05 01:17:00,23.4,20.1,29.96,ESE,113,0.4,3.5,87,0.00,OVC,,0.00,0.0,WeatherDisplay:10.37,2013-02-05 07:17:00,
2013-02-05 01:26:00,23.9,20.6,29.95,SSE,158,0.0,2.0,87,0.00,OVC,OVC,0.00,0.0,WeatherDisplay:10.37,2013-02-05 07:26:00,
2013-02-05 01:36:00,23.9,20.6,29.94,SSE,156,1.0,3.0,87,0.00,OVC,OVC,0.00,0.0,WeatherDisplay:10.37,2013-02-05 07:36:00,
2013-02-05 01:46:00,24.1,20.8,29.93,SSE,158,0.0,5.0,87,0.00,OVC,OVC,0.00,0.0,WeatherDisplay:10.37,2013-02-05 07:46:00,
2013-02-05 01:56:00,24.2,20.9,29.93,South,170,1.0,4.0,87,0.00,OVC,OVC,0.00,0.0,WeatherDisplay:10.37,2013-02-05 07:56:00,
2013-02-05 02:06:00,24.3,21.0,29.92,South,171,1.0,4.0,87,0.00,OVC,OVC,0.00,0.0,WeatherDisplay:10.37,2013-02-05 08:06:00,
2013-02-05 02:16:00,24.3,21.0,29.92,SSE,167,3.0,6.0,87,0.00,OVC,OVC,0.00,0.0,WeatherDisplay:10.37,2013-02-05 08:16:00,
2013-02-05 02:26:00,24.4,21.1,29.92,South,178,0.0,5.0,87,0.00,OVC,OVC,0.00,0.0,WeatherDisplay:10.37,2013-02-05 08:26:00,
2013-02-05 02:36:00,24.5,21.2,29.92,SSE,165,0.0,3.0,87,0.00,OVC,OVC,0.00,0.0,WeatherDisplay:10.37,2013-02-05 08:36:00,
2013-02-05 02:46:00,24.5,21.2,29.91,SSE,160,1.0,4.0,87,0.00,OVC,OVC,0.00,0.0,WeatherDisplay:10.37,2013-02-05 08:46:00,
2013-02-05 02:56:00,24.4,21.1,29.90,South,170,0.0,6.0,87,0.00,OVC,OVC,0.00,0.0,WeatherDisplay:10.37,2013-02-05 08:56:00,
2013-02-05 03:06:00,24.2,20.9,29.90,South,169,2.0,5.0,87,0.00,OVC,OVC,0.00,0.0,WeatherDisplay:10.37,2013-02-05 09:06:00,
2013-02-05 03:16:00,24.1,20.8,29.89,SSE,165,0.0,4.0,87,0.00,OVC,OVC,0.00,0.0,WeatherDisplay:10.37,2013-02-05 09:16:00,
2013-02-05 03:26:00,23.9,20.6,29.90,SSE,153,1.0,4.0,87,0.00,OVC,OVC,0.00,0.0,WeatherDisplay:10.37,2013-02-05 09:26:00,
2013-02-05 03:36:00,23.8,20.5,29.90,SSE,167,1.0,3.0,87,0.00,OVC,OVC,0.00,0.0,WeatherDisplay:10.37,2013-02-05 09:36:00,
2013-02-05 03:46:00,23.6,20.3,29.90,South,180,1.0,3.0,87,0.00,OVC,OVC,0.00,0.0,WeatherDisplay:10.37,2013-02-05 09:46:00,
2013-02-05 03:56:00,23.6,20.3,29.89,South,174,0.0,3.0,87,0.00,OVC,OVC,0.00,0.0,WeatherDisplay:10.37,2013-02-05 09:56:00,
2013-02-05 04:06:00,23.5,20.2,29.89,SSE,163,1.0,4.0,87,0.00,OVC,OVC,0.00,0.0,WeatherDisplay:10.37,2013-02-05 10:06:00,
2013-02-05 04:16:00,23.5,20.2,29.89,South,180,0.0,2.0,87,0.00,OVC,OVC,0.00,0.0,WeatherDisplay:10.37,2013-02-05 10:16:00,
2013-02-05 04:26:00,23.4,20.1,29.88,South,185,0.0,4.0,87,0.00,OVC,OVC,0.00,0.0,WeatherDisplay:10.37,2013-02-05 10:26:00,
2013-02-05 04:36:00,23.4,20.1,29.88,South,180,0.0,1.0,87,0.00,OVC,OVC,0.00,0.0,WeatherDisplay:10.37,2013-02-05 10:36:00,
2013-02-05 04:46:00,23.3,20.0,29.88,South,180,0.0,2.0,87,0.00,OVC,OVC,0.00,0.0,WeatherDisplay:10.37,2013-02-05 10:46:00,
2013-02-05 04:56:00,23.0,19.7,29.88,South,180,0.0,0.0,87,0.00,OVC,OVC,0.00,0.0,WeatherDisplay:10.37,2013-02-05 10:56:00,
2013-02-05 05:06:00,22.9,19.6,29.88,South,180,0.0,0.0,87,0.00,OVC,OVC,0.00,0.0,WeatherDisplay:10.37,2013-02-05 11:06:00,
2013-02-05 05:16:00,22.9,19.6,29.88,South,180,0.0,0.0,87,0.00,OVC,OVC,0.00,0.0,WeatherDisplay:10.37,2013-02-05 11:16:00,
2013-02-05 05:26:00,23.1,19.8,29.88,South,180,0.0,0.0,87,0.00,OVC,OVC,0.00,0.0,WeatherDisplay:10.37,2013-02-05 11:26:00,
2013-02-05 05:36:00,23.1,19.8,29.88,South,180,0.0,1.0,87,0.00,OVC,OVC,0.00,0.0,WeatherDisplay:10.37,2013-02-05 11:36:00,
2013-02-05 05:46:00,23.4,20.1,29.88,South,182,1.0,3.0,87,0.00,OVC,OVC,0.00,0.0,WeatherDisplay:10.37,2013-02-05 11:46:00,
2013-02-05 05:56:00,24.3,21.0,29.88,SSW,202,0.0,7.0,87,0.00,OVC,OVC,0.00,0.0,WeatherDisplay:10.37,2013-02-05 11:56:00,
2013-02-05 06:06:00,25.0,21.7,29.88,SW,218,0.0,6.0,87,0.00,OVC,OVC,0.00,0.0,WeatherDisplay:10.37,2013-02-05 12:06:00,
2013-02-05 06:16:00,25.4,22.1,29.88,SSE,165,1.0,3.0,87,0.00,OVC,OVC,0.00,0.0,WeatherDisplay:10.37,2013-02-05 12:16:00,
2013-02-05 06:26:00,25.7,22.4,29.89,SSW,202,0.0,2.0,87,0.00,OVC,OVC,0.00,7.0,WeatherDisplay:10.37,2013-02-05 12:26:00,
2013-02-05 06:36:00,26.0,22.7,29.88,SSW,202,0.0,1.0,87,0.00,OVC,OVC,0.00,15.4,WeatherDisplay:10.37,2013-02-05 12:36:00,
2013-02-05 06:46:00,26.1,22.8,29.88,SSW,202,1.0,3.0,87,0.00,OVC,OVC,0.00,16.8,WeatherDisplay:10.37,2013-02-05 12:46:00,
2013-02-05 06:56:00,26.4,23.1,29.89,SSW,202,0.0,1.0,87,0.00,OVC,OVC,0.00,19.6,WeatherDisplay:10.37,2013-02-05 12:56:00,
2013-02-05 07:06:00,26.8,23.4,29.89,SSW,202,0.0,2.0,87,0.00,OVC,OVC,0.00,32.2,WeatherDisplay:10.37,2013-02-05 13:06:00,
2013-02-05 07:16:00,27.2,23.8,29.89,SSE,156,1.0,2.0,87,0.00,OVC,OVC,0.00,42.0,WeatherDisplay:10.37,2013-02-05 13:16:00,
2013-02-05 07:26:00,27.9,24.5,29.90,SSW,209,0.0,3.0,87,0.00,OVC,OVC,0.00,84.0,WeatherDisplay:10.37,2013-02-05 13:26:00,
2013-02-05 07:36:00,28.6,25.2,29.89,SW,225,0.0,2.0,87,0.00,OVC,OVC,0.00,110.6,WeatherDisplay:10.37,2013-02-05 13:36:00,
2013-02-05 07:46:00,29.7,26.3,29.91,SSW,206,1.0,3.0,87,0.00,OVC,OVC,0.00,113.4,WeatherDisplay:10.37,2013-02-05 13:46:00,
2013-02-05 07:56:00,30.9,27.5,29.91,SSW,208,1.0,4.0,87,0.00,OVC,OVC,0.00,74.2,WeatherDisplay:10.37,2013-02-05 13:56:00,
2013-02-05 08:06:00,31.7,28.3,29.91,SSW,202,0.0,4.0,87,0.00,OVC,OVC,0.00,107.8,WeatherDisplay:10.37,2013-02-05 14:06:00,
2013-02-05 08:16:00,32.5,29.1,29.91,SSW,208,0.0,4.0,87,0.00,OVC,OVC,0.00,71.4,WeatherDisplay:10.37,2013-02-05 14:16:00,
2013-02-05 08:26:00,33.3,29.8,29.91,SSW,202,1.0,3.0,87,0.00,OVC,OVC,0.00,93.8,WeatherDisplay:10.37,2013-02-05 14:26:00,
2013-02-05 08:36:00,34.3,30.8,29.91,SW,233,0.0,7.0,87,0.00,OVC,OVC,0.00,239.4,WeatherDisplay:10.37,2013-02-05 14:36:00,
2013-02-05 08:46:00,35.4,31.9,29.92,SW,218,1.0,9.0,87,0.00,OVC,OVC,0.00,107.8,WeatherDisplay:10.37,2013-02-05 14:46:00,
2013-02-05 08:56:00,36.4,32.9,29.92,WSW,237,2.0,6.0,87,0.00,OVC,OVC,0.00,366.8,WeatherDisplay:10.37,2013-02-05 14:56:00,
2013-02-05 09:06:00,38.6,35.1,29.93,WSW,238,2.0,7.0,87,0.00,OVC,OVC,0.00,568.4,WeatherDisplay:10.37,2013-02-05 15:06:00,
2013-02-05 09:16:00,39.7,36.1,29.93,WSW,257,1.0,11.0,87,0.00,OVC,OVC,0.00,623.0,WeatherDisplay:10.37,2013-02-05 15:16:00,
2013-02-05 09:26:00,40.5,36.9,29.94,West,264,3.0,9.0,87,0.00,OVC,OVC,0.00,651.0,WeatherDisplay:10.37,2013-02-05 15:26:00,
2013-02-05 09:36:00,40.8,37.2,29.94,West,271,3.0,13.0,87,0.00,OVC,OVC,0.00,574.0,WeatherDisplay:10.37,2013-02-05 15:36:00,
2013-02-05 09:46:00,41.5,37.9,29.94,WSW,252,5.0,12.0,87,0.01,OVC,OVC,0.01,554.4,WeatherDisplay:10.37,2013-02-05 15:46:00,
2013-02-05 09:56:00,41.1,37.5,29.94,West,267,5.0,14.0,87,0.00,OVC,OVC,0.01,260.4,WeatherDisplay:10.37,2013-02-05 15:56:00,
2013-02-05 10:06:00,41.2,37.6,29.95,West,267,2.0,14.0,87,0.00,OVC,OVC,0.01,253.4,WeatherDisplay:10.37,2013-02-05 16:06:00,
2013-02-05 10:16:00,41.5,37.9,29.96,West,267,3.0,17.0,87,0.01,RA,RA,0.02,266.0,WeatherDisplay:10.37,2013-02-05 16:16:00,
2013-02-05 10:26:00,41.4,37.8,29.97,West,268,5.0,16.0,87,0.00,OVC,OVC,0.02,147.0,WeatherDisplay:10.37,2013-02-05 16:26:00,
2013-02-05 10:36:00,41.3,37.7,29.97,West,274,10.0,22.0,87,0.01,RA,RA,0.03,366.8,WeatherDisplay:10.37,2013-02-05 16:36:00,
2013-02-05 10:46:00,41.8,38.2,29.98,West,273,8.0,17.0,87,0.00,OVC,OVC,0.03,642.6,WeatherDisplay:10.37,2013-02-05 16:46:00,
2013-02-05 10:56:00,41.8,38.2,29.98,West,281,7.0,19.0,87,0.00,OVC,OVC,0.03,603.4,WeatherDisplay:10.37,2013-02-05 16:56:00,
2013-02-05 11:06:00,42.2,38.6,29.98,WNW,283,3.0,16.0,87,0.01,RA,RA,0.04,490.0,WeatherDisplay:10.37,2013-02-05 17:06:00,
2013-02-05 11:16:00,42.0,38.4,29.98,West,280,8.0,17.0,87,0.00,OVC,OVC,0.04,526.4,WeatherDisplay:10.37,2013-02-05 17:16:00,
2013-02-05 11:26:00,42.8,39.2,29.97,West,274,5.0,15.0,87,0.00,OVC,OVC,0.04,831.6,WeatherDisplay:10.37,2013-02-05 17:26:00,
2013-02-05 11:36:00,44.2,40.6,29.98,WNW,285,3.0,12.0,87,0.00,OVC,OVC,0.04,831.6,WeatherDisplay:10.37,2013-02-05 17:36:00,
2013-02-05 11:46:00,43.1,39.5,29.98,WNW,283,5.0,14.0,87,0.00,OVC,OVC,0.04,831.6,WeatherDisplay:10.37,2013-02-05 17:46:00,
2013-02-05 11:56:00,44.3,40.7,29.99,West,276,3.0,13.0,87,0.00,OVC,OVC,0.04,890.4,WeatherDisplay:10.37,2013-02-05 17:56:00,
2013-02-05 12:06:00,44.5,40.9,29.99,West,280,5.0,11.0,87,0.00,OVC,OVC,0.04,1016.4,WeatherDisplay:10.37,2013-02-05 18:06:00,
2013-02-05 12:16:00,44.4,40.8,29.99,West,269,6.0,14.0,87,0.00,OVC,OVC,0.04,362.6,WeatherDisplay:10.37,2013-02-05 18:16:00,
2013-02-05 12:26:00,43.4,39.8,30.00,West,271,9.0,19.0,87,0.00,OVC,OVC,0.04,366.8,WeatherDisplay:10.37,2013-02-05 18:26:00,
2013-02-05 12:36:00,43.2,39.6,30.00,West,273,5.0,21.0,87,0.00,OVC,OVC,0.04,315.0,WeatherDisplay:10.37,2013-02-05 18:36:00,
2013-02-05 12:46:00,43.1,39.5,30.00,WSW,255,6.0,13.0,87,0.00,OVC,OVC,0.04,207.2,WeatherDisplay:10.37,2013-02-05 18:46:00,
2013-02-05 12:56:00,43.0,39.4,30.00,West,274,5.0,11.0,87,0.00,OVC,OVC,0.04,299.6,WeatherDisplay:10.37,2013-02-05 18:56:00,
2013-02-05 13:06:00,43.7,40.1,30.01,West,278,3.0,13.0,87,0.00,OVC,OVC,0.04,639.8,WeatherDisplay:10.37,2013-02-05 19:06:00,
2013-02-05 13:16:00,44.2,40.6,30.00,West,277,3.0,9.0,87,0.00,OVC,OVC,0.04,292.6,WeatherDisplay:10.37,2013-02-05 19:16:00,
2013-02-05 13:26:00,44.7,41.1,30.00,West,280,2.0,11.0,87,0.00,OVC,OVC,0.04,289.8,WeatherDisplay:10.37,2013-02-05 19:26:00,
2013-02-05 13:36:00,44.1,40.5,30.00,West,273,8.0,15.0,87,0.00,OVC,OVC,0.04,162.4,WeatherDisplay:10.37,2013-02-05 19:36:00,
2013-02-05 13:46:00,43.6,40.0,30.01,West,273,6.0,18.0,87,0.00,OVC,OVC,0.04,140.0,WeatherDisplay:10.37,2013-02-05 19:46:00,
2013-02-05 13:56:00,43.5,39.9,30.02,West,276,5.0,12.0,87,0.00,OVC,OVC,0.04,317.8,WeatherDisplay:10.37,2013-02-05 19:56:00,
2013-02-05 14:06:00,43.7,40.1,30.02,West,275,5.0,13.0,87,0.00,OVC,OVC,0.04,165.2,WeatherDisplay:10.37,2013-02-05 20:06:00,
2013-02-05 14:16:00,43.8,40.2,30.03,West,270,6.0,15.0,87,0.00,OVC,OVC,0.04,364.0,WeatherDisplay:10.37,2013-02-05 20:16:00,
2013-02-05 14:26:00,43.6,40.0,30.03,WNW,301,6.0,12.0,87,0.00,OVC,OVC,0.04,389.2,WeatherDisplay:10.37,2013-02-05 20:26:00,
2013-02-05 14:36:00,43.6,40.0,30.04,WNW,284,5.0,11.0,87,0.00,OVC,OVC,0.04,226.8,WeatherDisplay:10.37,2013-02-05 20:36:00,
2013-02-05 14:46:00,42.8,39.2,30.04,WNW,295,5.0,17.0,87,0.00,OVC,OVC,0.04,123.2,WeatherDisplay:10.37,2013-02-05 20:46:00,
2013-02-05 14:56:00,42.2,38.6,30.05,WNW,291,5.0,9.0,87,0.00,OVC,OVC,0.04,249.2,WeatherDisplay:10.37,2013-02-05 20:56:00,
2013-02-05 15:06:00,42.4,38.8,30.05,WNW,288,3.0,9.0,87,0.00,OVC,OVC,0.04,85.4,WeatherDisplay:10.37,2013-02-05 21:06:00,
2013-02-05 15:16:00,41.7,38.1,30.05,West,279,7.0,15.0,87,0.00,OVC,OVC,0.04,74.2,WeatherDisplay:10.37,2013-02-05 21:16:00,
2013-02-05 15:26:00,41.5,37.9,30.05,West,275,3.0,13.0,87,0.00,OVC,OVC,0.04,81.2,WeatherDisplay:10.37,2013-02-05 21:26:00,
2013-02-05 15:36:00,41.3,37.7,30.06,WNW,283,3.0,9.0,87,0.00,OVC,OVC,0.04,65.8,WeatherDisplay:10.37,2013-02-05 21:36:00,
2013-02-05 15:46:00,40.9,37.3,30.06,WNW,288,3.0,11.0,87,0.00,OVC,OVC,0.04,36.4,WeatherDisplay:10.37,2013-02-05 21:46:00,
2013-02-05 15:56:00,40.5,36.9,30.06,NW,306,2.0,4.0,87,0.00,OVC,OVC,0.04,25.2,WeatherDisplay:10.37,2013-02-05 21:56:00,
2013-02-05 16:06:00,40.2,36.6,30.07,NNW,336,0.0,3.0,87,0.00,OVC,OVC,0.04,25.2,WeatherDisplay:10.37,2013-02-05 22:06:00,
2013-02-05 16:16:00,39.7,36.1,30.07,NW,308,3.0,4.0,87,0.00,OVC,OVC,0.04,18.2,WeatherDisplay:10.37,2013-02-05 22:16:00,
2013-02-05 16:26:00,39.6,36.0,30.07,West,279,1.0,4.0,87,0.00,OVC,OVC,0.04,12.6,WeatherDisplay:10.37,2013-02-05 22:26:00,
2013-02-05 16:36:00,39.3,35.8,30.08,WNW,282,0.0,5.0,87,0.00,OVC,OVC,0.04,0.0,WeatherDisplay:10.37,2013-02-05 22:36:00,
2013-02-05 16:46:00,38.9,35.4,30.08,West,270,0.0,3.0,87,0.00,OVC,OVC,0.04,0.0,WeatherDisplay:10.37,2013-02-05 22:46:00,
2013-02-05 16:56:00,38.2,34.7,30.08,West,270,0.0,0.0,87,0.00,OVC,OVC,0.04,0.0,WeatherDisplay:10.37,2013-02-05 22:56:00,
2013-02-05 17:06:00,37.6,34.1,30.09,West,270,0.0,0.0,87,0.00,OVC,OVC,0.04,0.0,WeatherDisplay:10.37,2013-02-05 23:06:00,
2013-02-05 17:16:00,36.7,33.2,30.08,West,270,0.0,0.0,87,0.00,OVC,OVC,0.04,0.0,WeatherDisplay:10.37,2013-02-05 23:16:00,
2013-02-05 17:26:00,35.9,32.4,30.09,West,270,0.0,0.0,87,0.00,OVC,OVC,0.04,0.0,WeatherDisplay:10.37,2013-02-05 23:26:00,
2013-02-05 17:36:00,35.0,31.5,30.09,West,270,0.0,0.0,87,0.00,OVC,OVC,0.04,0.0,WeatherDisplay:10.37,2013-02-05 23:36:00,
2013-02-05 17:46:00,34.7,31.2,30.09,West,270,0.0,0.0,87,0.00,OVC,OVC,0.04,0.0,WeatherDisplay:10.37,2013-02-05 23:46:00,
2013-02-05 17:56:00,34.2,30.7,30.10,West,270,0.0,0.0,87,0.00,OVC,OVC,0.04,0.0,WeatherDisplay:10.37,2013-02-05 23:56:00,
2013-02-05 18:06:00,33.6,30.1,30.10,West,270,0.0,0.0,87,0.00,OVC,OVC,0.04,0.0,WeatherDisplay:10.37,2013-02-06 00:06:00,
2013-02-05 18:16:00,32.9,29.5,30.11,West,270,0.0,0.0,87,0.00,OVC,OVC,0.04,0.0,WeatherDisplay:10.37,2013-02-06 00:16:00,
2013-02-05 18:26:00,32.5,29.1,30.11,West,270,0.0,0.0,87,0.00,OVC,OVC,0.04,0.0,WeatherDisplay:10.37,2013-02-06 00:26:00,
2013-02-05 18:36:00,32.0,28.6,30.12,West,270,0.0,0.0,87,0.00,OVC,OVC,0.04,0.0,WeatherDisplay:10.37,2013-02-06 00:36:00,
2013-02-05 18:46:00,31.6,28.2,30.12,West,270,0.0,0.0,87,0.00,OVC,OVC,0.04,0.0,WeatherDisplay:10.37,2013-02-06 00:46:00,
2013-02-05 18:56:00,31.3,27.9,30.12,West,270,0.0,0.0,87,0.00,OVC,OVC,0.04,0.0,WeatherDisplay:10.37,2013-02-06 00:56:00,
2013-02-05 20:05:00,31.0,28.4,30.12,WNW,297,0.0,0.0,90,0.00,OVC,,0.04,0.0,WeatherDisplay:10.37,2013-02-06 02:05:00,
2013-02-05 20:10:00,30.9,28.6,30.12,WNW,297,0.1,1.1,91,0.00,OVC,,0.04,0.0,WeatherDisplay:10.37,2013-02-06 02:10:00,
2013-02-05 20:15:00,31.2,29.1,30.13,WNW,288,0.4,6.0,92,0.00,OVC,,0.04,0.0,WeatherDisplay:10.37,2013-02-06 02:15:00,
2013-02-05 20:20:00,31.9,30.1,30.13,West,281,0.9,3.5,93,0.00,OVC,,0.04,0.0,WeatherDisplay:10.37,2013-02-06 02:20:00,
2013-02-05 20:26:00,32.4,30.3,30.13,WNW,292,0.9,1.1,92,0.00,OVC,,0.04,0.0,WeatherDisplay:10.37,2013-02-06 02:26:00,
2013-02-05 20:31:00,32.7,30.4,30.13,West,281,0.5,2.3,91,0.00,OVC,,0.04,0.0,WeatherDisplay:10.37,2013-02-06 02:31:00,
2013-02-05 20:36:00,32.9,30.3,30.14,West,281,0.0,0.0,90,0.00,OVC,,0.04,0.0,WeatherDisplay:10.37,2013-02-06 02:36:00,
2013-02-05 20:41:00,32.9,30.0,30.14,West,281,0.0,0.0,89,0.00,OVC,,0.04,0.0,WeatherDisplay:10.37,2013-02-06 02:41:00,
2013-02-05 20:47:00,32.8,29.9,30.14,West,281,0.0,0.0,89,0.00,OVC,,0.04,0.0,WeatherDisplay:10.37,2013-02-06 02:47:00,
2013-02-05 20:52:00,32.8,29.9,30.14,NW,317,0.0,0.0,89,0.00,OVC,,0.04,0.0,WeatherDisplay:10.37,2013-02-06 02:52:00,
2013-02-05 20:56:00,31.7,28.6,30.16,North,360,0.0,0.0,88,0.00,RA,RA,0.04,0.0,WeatherDisplay:10.37,2013-02-06 02:56:00,
2013-02-05 20:57:00,32.8,29.9,30.14,NW,326,0.0,2.3,89,0.00,OVC,,0.04,0.0,WeatherDisplay:10.37,2013-02-06 02:57:00,
2013-02-05 21:02:00,33.1,30.2,30.14,North,360,0.0,0.0,89,0.00,CLR,,0.04,0.0,WeatherDisplay:10.37,2013-02-06 03:02:00,
2013-02-05 21:06:00,31.0,27.9,30.16,North,360,0.0,0.0,88,0.00,CLR,CLR,0.04,0.0,WeatherDisplay:10.37,2013-02-06 03:06:00,
2013-02-05 21:08:00,33.2,30.0,30.15,North,360,0.0,0.0,88,0.00,CLR,,0.04,0.0,WeatherDisplay:10.37,2013-02-06 03:08:00,
2013-02-05 21:13:00,33.2,30.0,30.15,North,355,0.2,2.3,88,0.00,CLR,,0.04,0.0,WeatherDisplay:10.37,2013-02-06 03:13:00,
2013-02-05 21:16:00,30.3,27.2,30.16,North,360,0.0,0.0,88,0.00,CLR,CLR,0.04,0.0,WeatherDisplay:10.37,2013-02-06 03:16:00,
2013-02-05 21:18:00,33.0,29.6,30.15,North,355,0.0,1.1,87,0.00,CLR,,0.04,0.0,WeatherDisplay:10.37,2013-02-06 03:18:00,
2013-02-05 21:23:00,32.9,29.5,30.15,North,355,0.0,0.0,87,0.00,CLR,,0.04,0.0,WeatherDisplay:10.37,2013-02-06 03:23:00,
2013-02-05 21:26:00,29.9,26.8,30.16,North,360,0.0,0.0,88,0.00,CLR,CLR,0.04,0.0,WeatherDisplay:10.37,2013-02-06 03:26:00,
2013-02-05 21:29:00,32.8,29.4,30.15,North,355,0.0,0.0,87,0.00,CLR,,0.04,0.0,WeatherDisplay:10.37,2013-02-06 03:29:00,
2013-02-05 21:34:00,32.6,29.4,30.15,North,355,0.0,0.0,88,0.00,CLR,,0.04,0.0,WeatherDisplay:10.37,2013-02-06 03:34:00,
2013-02-05 21:36:00,29.7,26.6,30.16,North,360,0.0,0.0,88,0.00,CLR,CLR,0.04,0.0,WeatherDisplay:10.37,2013-02-06 03:36:00,
2013-02-05 21:39:00,32.4,29.0,30.15,North,355,0.0,0.0,87,0.00,CLR,,0.04,0.0,WeatherDisplay:10.37,2013-02-06 03:39:00,
2013-02-05 21:44:00,32.2,28.8,30.15,North,355,0.0,0.0,87,0.00,CLR,,0.04,0.0,WeatherDisplay:10.37,2013-02-06 03:44:00,
2013-02-05 21:46:00,29.3,26.2,30.16,North,360,0.0,0.0,88,0.00,CLR,CLR,0.04,0.0,WeatherDisplay:10.37,2013-02-06 03:46:00,
2013-02-05 21:50:00,32.0,28.8,30.16,North,355,0.0,0.0,88,0.00,CLR,,0.04,0.0,WeatherDisplay:10.37,2013-02-06 03:50:00,
2013-02-05 21:55:00,32.0,28.8,30.16,North,355,0.0,0.0,88,0.00,CLR,,0.04,0.0,WeatherDisplay:10.37,2013-02-06 03:55:00,
2013-02-05 21:56:00,28.8,25.7,30.16,North,360,0.0,0.0,88,0.00,CLR,CLR,0.04,0.0,WeatherDisplay:10.37,2013-02-06 03:56:00,
2013-02-05 22:00:00,32.0,28.8,30.16,North,355,0.0,0.0,88,0.00,CLR,,0.04,0.0,WeatherDisplay:10.37,2013-02-06 04:00:00,
2013-02-05 22:06:00,28.5,25.4,30.16,North,360,0.0,0.0,88,0.00,CLR,CLR,0.04,0.0,WeatherDisplay:10.37,2013-02-06 04:06:00,
2013-02-05 22:16:00,28.3,25.2,30.16,North,360,0.0,0.0,88,0.00,CLR,CLR,0.04,0.0,WeatherDisplay:10.37,2013-02-06 04:16:00,
2013-02-05 22:26:00,28.0,24.9,30.16,North,360,0.0,0.0,88,0.00,CLR,CLR,0.04,0.0,WeatherDisplay:10.37,2013-02-06 04:26:00,
2013-02-05 22:36:00,27.9,24.8,30.17,North,360,0.0,0.0,88,0.00,CLR,CLR,0.04,0.0,WeatherDisplay:10.37,2013-02-06 04:36:00,
2013-02-05 22:46:00,27.6,24.5,30.17,North,360,0.0,0.0,88,0.00,CLR,CLR,0.04,0.0,WeatherDisplay:10.37,2013-02-06 04:46:00,
2013-02-05 22:56:00,27.2,24.1,30.17,North,360,0.0,0.0,88,0.00,CLR,CLR,0.04,0.0,WeatherDisplay:10.37,2013-02-06 04:56:00,
2013-02-05 23:06:00,27.3,24.2,30.18,North,360,0.0,0.0,88,0.00,RA,RA,0.00,0.0,WeatherDisplay:10.37,2013-02-06 05:06:00,
2013-02-05 23:16:00,27.4,24.3,30.18,North,360,0.0,0.0,88,0.00,CLR,CLR,0.00,0.0,WeatherDisplay:10.37,2013-02-06 05:16:00,
2013-02-05 23:26:00,27.4,24.3,30.18,North,360,0.0,0.0,88,0.00,CLR,CLR,0.00,0.0,WeatherDisplay:10.37,2013-02-06 05:26:00,
2013-02-05 23:36:00,27.5,24.4,30.18,North,360,0.0,0.0,88,0.00,CLR,CLR,0.00,0.0,WeatherDisplay:10.37,2013-02-06 05:36:00,
2013-02-05 23:46:00,27.2,24.1,30.18,North,360,0.0,0.0,88,0.00,CLR,CLR,0.00,0.0,WeatherDisplay:10.37,2013-02-06 05:46:00,
2013-02-05 23:56:00,27.0,23.9,30.18,North,360,0.0,0.0,88,0.00,CLR,CLR,0.00,0.0,WeatherDisplay:10.37,2013-02-06 05:56:00,